Flag for U.S.A. Weather past 2 weeks in Richmond, Virginia, U.S.A.

Now
67 °F

Partly sunny.


Feels Like: 67 °F
Forecast: 39 / 68 °F
Wind: 14 mph from South

Location: Richmond International Airport

Current Time: Oct 20, 2014 at 3:02:21 PM

Latest Report: Oct 20, 2014 at 1:54 PM


Visibility: 10 mi

Pressure: 30.04 "Hg

Humidity: 37%

Dew point: 40 °F

Location of RichmondLocation

Historic Weather in Richmond — Graph

°F

Richmond temperature yesterday

Maximum temperature yesterday: 64 °F (at 2:54 PM)
Minimum temperature yesterday: 46 °F (at 10:54 PM)
Average temperature yesterday: 56 °F

Past Weeks' High & Low Weather Summary

 TemperatureHumidityPressure
High82 °F (Oct 8, 2:54 PM)100% (Oct 16, 1:54 AM)30.29 "Hg (Oct 16, 1:54 AM)
Low41 °F (Oct 20, 3:54 AM)25% (Oct 19, 4:54 PM)29.69 "Hg (Oct 18, 3:54 AM)
Average64 °F70%30.00 "Hg
* Reported Oct 5 1:54 PM — Oct 20 1:54 PM, Richmond, Weather by CustomWeather, © 2014

Note: Actual official high and low records may vary slightly from our data, if they occured in-between our weather recording intervals... More about our weather records

Advertising

Richmond weather history for previous 24 hours

 ConditionsComfort  
Time TempWeatherWind HumidityBarometerVisibility
1:54 PM
Oct 20
67 °FPartly sunny.14 mph37%30.04 "Hg10 mi
12:54 PM65 °FPartly sunny.14 mph44%30.09 "Hg10 mi
11:54 AM63 °FPartly sunny.16 mph47%30.12 "Hg10 mi
10:54 AM60 °FPartly sunny.14 mph53%30.15 "Hg10 mi
9:54 AM54 °FPartly sunny.9 mph69%30.17 "Hg10 mi
8:54 AM49 °FPartly sunny.5 mph77%30.17 "Hg10 mi
7:54 AM43 °FPartly cloudy.No wind86%30.15 "Hg10 mi
6:54 AM43 °FPassing clouds.No wind82%30.14 "Hg10 mi
5:54 AM41 °FPassing clouds.No wind82%30.14 "Hg10 mi
4:54 AM41 °FPassing clouds.No wind86%30.14 "Hg10 mi
3:54 AM41 °FPassing clouds.No wind86%30.13 "Hg10 mi
2:54 AM42 °FPassing clouds.No wind79%30.14 "Hg10 mi
1:54 AM43 °FPassing clouds.No wind76%30.14 "Hg10 mi
12:54 AM44 °FPassing clouds.No wind76%30.14 "Hg10 mi
10:54 PM
Oct 19
46 °FPassing clouds.No wind77%30.14 "Hg10 mi
9:54 PM47 °FPassing clouds.No wind71%30.13 "Hg10 mi
8:54 PM48 °FPassing clouds.No wind66%30.13 "Hg10 mi
7:54 PM50 °FPassing clouds.No wind59%30.11 "Hg10 mi
6:54 PM56 °FPartly sunny.No wind40%30.09 "Hg10 mi
5:54 PM62 °FScattered clouds.8 mph27%30.06 "Hg10 mi
4:54 PM64 °FPassing clouds.9 mph25%30.06 "Hg10 mi
3:54 PM64 °FPassing clouds.15 mph26%30.05 "Hg10 mi
Weather by CustomWeather, © 2014

See weather overviewHow to use our weather pages